Weather History for Ashland, WI

Change the Weather History Date:

Thursday, May 23, 2013

  Actual Average Record
Temperature  
Mean Temperature 44 °F -  
Max Temperature 54 °F 67 °F 91 °F (1950)
Min Temperature 33 °F 42 °F 26 °F (1963)
Degree Days  
Heating Degree Days 22    
Moisture  
Dew Point 33 °F    
Average Humidity 69    
Maximum Humidity 92    
Minimum Humidity 48    
Precipitation  
Precipitation 0.00 in - - ()
Sea Level Pressure  
Sea Level Pressure 30.32 in    
Wind  
Wind Speed 12 mph (NE)    
Max Wind Speed 21 mph    
Max Gust Speed 28 mph    
Visibility 10 miles    
Events      
Averages and records for this station are not official NWS values.
T = Trace of Precipitation, MM = Missing Value Source: NWS Daily Summary

Daily Weather History Graph

Daily Weather History Graph

Search for Another Location

Airport:

Trip Planner

Search our weather history database for the weather conditions in past years. The results will help you decide how hot, cold, wet, or windy it might be!

Date:

Astronomy

May. 23, 2013 Rise Set
Actual Time 5:20 AM CDT 8:40 PM CDT
Civil Twilight 4:44 AM CDT 9:17 PM CDT
Nautical Twilight 3:56 AM CDT 10:06 PM CDT
Astronomical Twilight 2:55 AM CDT 11:07 PM CDT
Moon 7:09 PM CDT (5/23) 4:12 AM CDT (5/23)
Length of Visible Light 16h 33m
Length of Day
15h 19m
Waxing Gibbous, 97% of the Moon is Illuminated
May 23
Waxing Gibbous
May 24
Full
May 31
Last Quarter
Jun 8
New
Jun 16
First Quarter

Hourly Weather History & Observations

Time (CDT) Temp. Windchill Dew Point Humidity Pressure Visibility Wind Dir Wind Speed Gust Speed Precip Events Conditions
12:53 AM 41.0 °F 33.5 °F 36.0 °F 82% 30.14 in 10.0 mi ENE 13.8 mph 25.3 mph N/A   Scattered Clouds
1:53 AM 39.9 °F 32.9 °F 35.1 °F 83% 30.16 in 10.0 mi ENE 11.5 mph - N/A   Clear
2:53 AM 39.0 °F 31.8 °F 34.0 °F 82% 30.17 in 10.0 mi ENE 11.5 mph - N/A   Clear
3:53 AM 37.9 °F 30.9 °F 33.1 °F 83% 30.19 in 10.0 mi NE 10.4 mph - N/A   Clear
4:53 AM 39.0 °F 30.3 °F 33.1 °F 79% 30.22 in 10.0 mi NE 16.1 mph 24.2 mph N/A   Clear
5:53 AM 39.0 °F 31.0 °F 30.0 °F 70% 30.25 in 10.0 mi NE 13.8 mph - N/A   Clear
6:53 AM 39.9 °F 31.1 °F 30.9 °F 70% 30.28 in 10.0 mi NE 17.3 mph 25.3 mph N/A   Clear
7:53 AM 41.0 °F 32.8 °F 32.0 °F 70% 30.30 in 10.0 mi NE 16.1 mph 24.2 mph N/A   Clear
8:53 AM 42.1 °F 33.1 °F 30.9 °F 65% 30.33 in 10.0 mi NE 20.7 mph 27.6 mph N/A   Clear
9:40 AM 42.8 °F 34.5 °F 30.2 °F 61% 30.32 in 10.0 mi NNE 18.4 mph 23.0 mph N/A   Mostly Cloudy
9:53 AM 42.1 °F 33.6 °F 30.9 °F 65% 30.35 in 10.0 mi NE 18.4 mph - N/A   Mostly Cloudy
10:53 AM 42.1 °F 34.9 °F 32.0 °F 67% 30.37 in 10.0 mi NE 13.8 mph 20.7 mph N/A   Mostly Cloudy
11:45 AM 42.8 °F 36.2 °F 33.8 °F 70% 30.36 in 10.0 mi NE 12.7 mph - N/A   Scattered Clouds
11:53 AM 43.0 °F 37.2 °F 33.1 °F 68% 30.38 in 10.0 mi NE 10.4 mph 18.4 mph N/A   Partly Cloudy
12:53 PM 45.0 °F 40.6 °F 33.1 °F 63% 30.38 in 10.0 mi NE 8.1 mph - N/A   Clear
1:53 PM 48.0 °F - 34.0 °F 58% 30.38 in 10.0 mi North 9.2 mph - N/A   Clear
2:53 PM 48.0 °F - 34.0 °F 58% 30.39 in 10.0 mi NNE 8.1 mph - N/A   Clear
3:53 PM 50.0 °F - 33.1 °F 52% 30.38 in 10.0 mi NNE 6.9 mph - N/A   Clear
4:53 PM 53.1 °F - 34.0 °F 48% 30.37 in 10.0 mi ENE 6.9 mph - N/A   Clear
5:53 PM 52.0 °F - 35.1 °F 53% 30.37 in 10.0 mi NNE 6.9 mph - N/A   Clear
6:53 PM 50.0 °F - 35.1 °F 57% 30.38 in 10.0 mi North 6.9 mph - N/A   Clear
7:53 PM 46.9 °F - 35.1 °F 63% 30.37 in 10.0 mi NNE 5.8 mph - N/A   Clear
8:53 PM 39.9 °F - 34.0 °F 79% 30.37 in 10.0 mi Calm Calm - N/A   Clear
9:53 PM 37.9 °F 35.5 °F 33.1 °F 83% 30.39 in 10.0 mi NE 3.5 mph - N/A   Clear
10:53 PM 34.0 °F 29.8 °F 30.0 °F 85% 30.40 in 10.0 mi NNE 4.6 mph - N/A   Clear
11:53 PM 33.1 °F - 30.9 °F 92% 30.41 in 10.0 mi Calm Calm - N/A   Clear